Tracking 19224 objects as of 22-Jul-2018
HD Live streaming from Space Station
objects crossing your sky now

FENGYUN 1C DEB

Track FENGYUN 1C DEB now!
10-day predictions


NORAD ID: 38166
Int'l Code: 1999-025ERP
Perigee: 818.6 km
Apogee: 932.9 km
Inclination: 99.2 °
Period: 102.3 minutes
Semi major axis: 7246 km
RCS: 0.002 m2 (small)
Launch date: May 10, 1999
Source: People's Republic of China (PRC)
Launch site: Taiyaun Space Center, China (TSC)

Note: This is SATELLITE DEBRIS
aabbcc
Your satellite tracking list
Your tracking list is empty




NASA's NSSDC Master Catalog

Two Line Element Set (TLE):
1 38166U 99025ERP 18202.25496113 +.00000805 +00000-0 +49215-3 0  9990
2 38166 099.1661 219.3346 0078881 088.9995 272.0209 14.07297153256145
Source of the keplerian elements: AFSPC